| time (UTC) | temp F | wind direction | speed knots | gust knots | rain 1hr in | rain 24hr in | rain mn in | humidity % | barometer mb |
| 20260507064509 | 43 | 360 | 1.7 | 5.2 | 0.00 | 0.00 | 0.00 | 53 | 1016.1 |
| 20260507063005 | 42 | 39 | 2.6 | 7.0 | 0.00 | 0.00 | 0.00 | 54 | 1016.1 |
| 20260507061502 | 41 | 5 | 1.7 | 4.3 | 0.00 | 0.00 | 0.00 | 54 | 1015.9 |
| 20260507060103 | 41 | 360 | 3.5 | 7.8 | 0.00 | 0.00 | 0.00 | 54 | 1015.7 |
| 20260507054613 | 40 | 9 | 1.7 | 5.2 | 0.00 | 0.00 | 0.00 | 56 | 1015.7 |
| 20260507053103 | 39 | 344 | 2.6 | 4.3 | 0.00 | 0.00 | 0.00 | 57 | 1015.6 |
| 20260507051555 | 38 | 326 | 2.6 | 5.2 | 0.00 | 0.00 | 0.00 | 58 | 1015.5 |
| 20260507050053 | 37 | 333 | 2.6 | 5.2 | 0.00 | 0.00 | 0.00 | 59 | 1015.4 |
| 20260507044554 | 36 | 321 | 1.7 | 3.5 | 0.00 | 0.00 | 0.00 | 61 | 1015.3 |
| 20260507043046 | 35 | 306 | 1.7 | 5.2 | 0.00 | 0.00 | 0.00 | 63 | 1015.2 |
| 20260507041558 | 33 | 316 | 0.9 | 3.5 | 0.00 | 0.00 | 0.00 | 66 | 1015.1 |
| 20260507040043 | 32 | 306 | 1.7 | 3.5 | 0.00 | 0.00 | 0.00 | 69 | 1015.0 |
| 20260507034542 | 31 | 295 | 1.7 | 3.5 | 0.00 | 0.00 | 0.00 | 71 | 1014.9 |
| 20260507033041 | 30 | 319 | 0.9 | 3.5 | 0.00 | 0.00 | 0.00 | 72 | 1014.7 |
| 20260507031541 | 30 | 309 | 0.9 | 2.6 | 0.00 | 0.00 | 0.00 | 72 | 1014.7 |
| 20260507030036 | 31 | 311 | 0.0 | 1.7 | 0.00 | 0.00 | 0.00 | 72 | 1014.6 |
| 20260507024537 | 31 | 311 | 0.0 | 0.9 | 0.00 | 0.00 | 0.00 | 70 | 1014.6 |
| 20260507023030 | 32 | 311 | 0.0 | 1.7 | 0.00 | 0.00 | 0.00 | 67 | 1014.5 |
| 20260507021534 | 32 | 317 | 0.9 | 3.5 | 0.00 | 0.00 | 0.00 | 67 | 1014.4 |
| 20260507020027 | 33 | 317 | 0.9 | 2.6 | 0.00 | 0.00 | 0.00 | 66 | 1014.3 |
| 20260507014529 | 33 | 319 | 1.7 | 4.3 | 0.00 | 0.00 | 0.00 | 67 | 1014.2 |
| 20260507013023 | 33 | 317 | 0.9 | 2.6 | 0.00 | 0.00 | 0.00 | 67 | 1014.1 |
| 20260507011523 | 33 | 309 | 0.0 | 1.7 | 0.00 | 0.00 | 0.00 | 66 | 1013.9 |
| 20260507010029 | 34 | 314 | 0.0 | 2.6 | 0.00 | 0.00 | 0.00 | 64 | 1013.9 |
| 20260507004518 | 35 | 316 | 0.0 | 2.6 | 0.00 | 0.00 | 0.00 | 60 | 1013.9 |
| 20260507003016 | 36 | 305 | 0.9 | 2.6 | 0.00 | 0.00 | 0.00 | 61 | 1013.8 |
| 20260507001516 | 35 | 324 | 1.7 | 4.3 | 0.00 | 0.00 | 0.00 | 60 | 1013.7 |
| 20260507000019 | 34 | 328 | 1.7 | 3.5 | 0.00 | 0.00 | 0.00 | 65 | 1013.8 |
| 20260506234510 | 35 | 317 | 0.0 | 1.7 | 0.00 | 0.00 | 0.00 | 64 | 1013.6 |
| 20260506233007 | 36 | 5 | 0.9 | 1.7 | 0.00 | 0.00 | 0.00 | 63 | 1013.6 |
| 20260506231505 | 37 | 5 | 0.0 | 0.9 | 0.00 | 0.00 | 0.00 | 60 | 1013.5 |
| 20260506230001 | 37 | 335 | 0.9 | 2.6 | 0.00 | 0.00 | 0.00 | 61 | 1013.3 |
| 20260506224600 | 37 | 350 | 0.0 | 1.7 | 0.00 | 0.00 | 0.00 | 60 | 1013.2 |
| 20260506223104 | 37 | 18 | 0.0 | 2.6 | 0.00 | 0.00 | 0.00 | 60 | 1013.1 |
| 20260506221602 | 37 | 304 | 0.0 | 2.6 | 0.00 | 0.00 | 0.00 | 64 | 1013.0 |
| 20260506220051 | 38 | 308 | 0.0 | 1.7 | 0.00 | 0.00 | 0.00 | 63 | 1012.9 |
| 20260506214551 | 38 | 299 | 0.9 | 3.5 | 0.00 | 0.00 | 0.00 | 62 | 1012.8 |
| 20260506213055 | 39 | 278 | 0.0 | 1.7 | 0.00 | 0.00 | 0.00 | 61 | 1012.7 |
| 20260506211554 | 40 | 319 | 0.0 | 2.6 | 0.00 | 0.00 | 0.00 | 61 | 1012.5 |
| 20260506210050 | 39 | 304 | 0.9 | 3.5 | 0.00 | 0.00 | 0.00 | 62 | 1012.3 |
| 20260506204549 | 39 | 329 | 0.0 | 2.6 | 0.00 | 0.00 | 0.00 | 63 | 1012.4 |
| 20260506203048 | 40 | 212 | 0.0 | 0.0 | 0.00 | 0.00 | 0.00 | 62 | 1012.3 |
| 20260506201550 | 42 | 212 | 0.0 | 0.0 | 0.00 | 0.00 | 0.00 | 60 | 1012.2 |
| 20260506200047 | 43 | 212 | 0.0 | 0.9 | 0.00 | 0.00 | 0.00 | 56 | 1012.1 |
| 20260506194548 | 45 | 298 | 0.0 | 0.9 | 0.00 | 0.00 | 0.00 | 51 | 1012.1 |
| 20260506193052 | 47 | 298 | 0.0 | 2.6 | 0.00 | 0.00 | 0.00 | 49 | 1012.1 |
| 20260506191546 | 48 | 216 | 0.9 | 3.5 | 0.00 | 0.00 | 0.00 | 45 | 1011.9 |
| 20260506190047 | 49 | 189 | 0.9 | 4.3 | 0.00 | 0.00 | 0.00 | 43 | 1011.7 |
| 20260506184546 | 49 | 217 | 0.9 | 6.1 | 0.00 | 0.00 | 0.00 | 41 | 1011.7 |
| 20260506183044 | 51 | 205 | 3.5 | 8.7 | 0.00 | 0.00 | 0.00 | 37 | 1011.6 |
| 20260506181557 | 53 | 247 | 4.3 | 8.7 | 0.00 | 0.00 | 0.00 | 35 | 1011.4 |
| 20260506180045 | 53 | 263 | 3.5 | 6.1 | 0.00 | 0.00 | 0.00 | 35 | 1011.4 |
| 20260506174542 | 53 | 228 | 1.7 | 7.0 | 0.00 | 0.00 | 0.00 | 35 | 1011.3 |
| 20260506173105 | 52 | 237 | 3.5 | 7.0 | 0.00 | 0.00 | 0.00 | 34 | 1011.1 |
| 20260506171543 | 53 | 248 | 3.5 | 8.7 | 0.00 | 0.00 | 0.00 | 33 | 1011.3 |
| 20260506170052 | 55 | 240 | 3.5 | 7.0 | 0.00 | 0.00 | 0.00 | 30 | 1011.3 |
| 20260506164540 | 56 | 219 | 2.6 | 6.1 | 0.00 | 0.00 | 0.00 | 28 | 1011.3 |
| 20260506163050 | 55 | 233 | 1.7 | 4.3 | 0.00 | 0.00 | 0.00 | 26 | 1011.4 |
| 20260506161540 | 57 | 286 | 1.7 | 7.0 | 0.00 | 0.00 | 0.00 | 25 | 1011.3 |
| 20260506160042 | 58 | 180 | 0.9 | 6.1 | 0.00 | 0.00 | 0.00 | 25 | 1011.2 |
| 20260506154538 | 58 | 180 | 3.5 | 7.0 | 0.00 | 0.00 | 0.00 | 26 | 1011.4 |
| 20260506153032 | 57 | 166 | 3.5 | 6.1 | 0.00 | 0.00 | 0.00 | 27 | 1011.6 |
| 20260506151532 | 57 | 243 | 3.5 | 6.1 | 0.00 | 0.00 | 0.00 | 23 | 1011.4 |
| 20260506150031 | 58 | 224 | 0.9 | 2.6 | 0.00 | 0.00 | 0.00 | 22 | 1011.7 |
| 20260506144528 | 56 | 220 | 0.9 | 9.6 | 0.00 | 0.00 | 0.00 | 20 | 1011.6 |
| 20260506143028 | 55 | 348 | 4.3 | 9.6 | 0.00 | 0.00 | 0.00 | 21 | 1011.6 |
| 20260506141525 | 57 | 218 | 4.3 | 8.7 | 0.00 | 0.00 | 0.00 | 24 | 1011.6 |
| 20260506140022 | 54 | 261 | 7.0 | 10.4 | 0.00 | 0.00 | 0.00 | 27 | 1011.8 |
| 20260506134522 | 53 | 232 | 3.5 | 9.6 | 0.00 | 0.00 | 0.00 | 29 | 1011.8 |
| 20260506133020 | 52 | 229 | 3.5 | 10.4 | 0.00 | 0.00 | 0.00 | 30 | 1011.8 |
| 20260506131521 | 52 | 205 | 4.3 | 9.6 | 0.00 | 0.00 | 0.00 | 31 | 1011.9 |
| 20260506130017 | 53 | 265 | 4.3 | 13.0 | 0.00 | 0.00 | 0.00 | 30 | 1011.9 |
| 20260506124517 | 54 | 255 | 5.2 | 12.2 | 0.00 | 0.00 | 0.00 | 30 | 1011.7 |
| 20260506123014 | 54 | 355 | 1.7 | 9.6 | 0.00 | 0.00 | 0.00 | 30 | 1011.9 |
| 20260506121513 | 53 | 217 | 6.1 | 13.9 | 0.00 | 0.00 | 0.00 | 30 | 1011.9 |
| 20260506120010 | 54 | 223 | 1.7 | 7.8 | 0.00 | 0.00 | 0.00 | 34 | 1012.1 |
| 20260506114508 | 53 | 167 | 2.6 | 7.8 | 0.00 | 0.00 | 0.00 | 33 | 1012.1 |
| 20260506113006 | 52 | 191 | 3.5 | 9.6 | 0.00 | 0.00 | 0.00 | 36 | 1012.2 |
| 20260506111504 | 52 | 226 | 7.8 | 13.0 | 0.00 | 0.00 | 0.00 | 37 | 1012.1 |
| 20260506110002 | 52 | 271 | 2.6 | 7.8 | 0.00 | 0.00 | 0.00 | 38 | 1012.3 |
| 20260506104636 | 51 | 346 | 1.7 | 7.8 | 0.00 | 0.00 | 0.00 | 36 | 1012.3 |
| 20260506103102 | 50 | 253 | 3.5 | 8.7 | 0.00 | 0.00 | 0.00 | 34 | 1012.4 |
| 20260506101555 | 49 | 329 | 5.2 | 8.7 | 0.00 | 0.00 | 0.00 | 35 | 1012.5 |
| 20260506100052 | 49 | 317 | 1.7 | 8.7 | 0.00 | 0.00 | 0.00 | 35 | 1012.4 |
| 20260506094550 | 48 | 347 | 3.5 | 7.8 | 0.00 | 0.00 | 0.00 | 38 | 1012.5 |
| 20260506093048 | 48 | 323 | 5.2 | 9.6 | 0.00 | 0.00 | 0.00 | 39 | 1012.7 |
| 20260506091546 | 47 | 162 | 4.3 | 7.8 | 0.00 | 0.00 | 0.00 | 42 | 1012.7 |
| 20260506090047 | 47 | 284 | 3.5 | 8.7 | 0.00 | 0.00 | 0.00 | 42 | 1012.8 |
| 20260506084541 | 46 | 84 | 0.0 | 3.5 | 0.00 | 0.00 | 0.00 | 44 | 1012.8 |
| 20260506083043 | 45 | 341 | 2.6 | 5.2 | 0.00 | 0.00 | 0.00 | 47 | 1012.9 |
| 20260506081537 | 45 | 178 | 0.9 | 6.1 | 0.00 | 0.00 | 0.00 | 46 | 1013.1 |
| 20260506073030 | 43 | 86 | 0.9 | 5.2 | 0.00 | 0.00 | 0.00 | 52 | 1013.1 |
| 20260506071527 | 42 | 108 | 0.9 | 5.2 | 0.00 | 0.00 | 0.00 | 52 | 1013.0 |